Theta_e
294 295 296 297 295 295 296 295 296 296 297 298 296 297 299 299 291 288 296 299 296 298 300 302 303 304 304 305 306 307 308 308 309 309 307 307 307 307 307 308 308 308 308 309 310 311 311 312 314 315 315 316 318 319 321 323 324 325 326 326 325 326 326 327 327 328 329 329 329 329 327 327 327 327 326 326 325 323 323 325 325 323 324 323 321 319 319
293 294 295 296 295 295 295 295 295 296 298 299 299 299 301 300 299 300 299 297 296 299 300 302 303 304 304 305 306 307 306 306 307 306 307 306 305 305 305 306 306 307 307 308 308 309 309 310 310 310 311 312 314 316 317 318 320 323 325 324 325 325 325 326 327 327 328 328 328 328 328 327 326 327 327 327 326 325 324 324 324 324 324 325 322 321 320
292 294 294 295 295 294 294 295 296 297 298 298 298 299 300 301 301 300 298 294 293 299 301 300 302 303 303 303 303 304 305 305 305 305 304 304 303 304 304 304 305 305 305 305 306 306 307 308 309 309 310 310 311 311 312 315 317 320 323 322 322 323 324 325 326 326 327 327 328 327 327 326 325 325 326 327 326 324 322 324 324 324 324 324 323 323 321
289 293 293 293 294 294 292 293 294 295 295 292 295 295 300 298 295 296 294 291 291 297 300 300 301 302 302 301 302 302 302 303 303 302 302 301 302 302 302 303 303 303 303 304 304 304 305 305 306 307 308 308 309 309 311 311 312 314 316 317 318 319 321 323 324 324 325 326 326 326 326 325 325 325 326 326 326 326 325 324 324 324 324 323 324 324 323
288 293 293 293 293 292 288 288 293 296 295 296 297 297 300 300 299 293 291 292 297 299 299 298 299 300 300 300 300 300 301 302 301 300 300 300 300 301 301 302 302 303 303 303 304 304 304 304 304 305 306 306 307 308 309 311 312 313 312 313 313 314 314 316 318 320 321 322 322 324 325 325 325 326 326 325 324 324 325 325 324 324 323 323 323 325 325
287 292 293 294 289 282 284 295 301 298 295 295 294 294 297 299 300 296 299 298 299 299 299 299 298 298 298 299 300 301 300 299 299 300 301 300 301 301 301 302 302 302 302 303 303 303 303 304 304 305 306 305 306 308 308 309 310 311 312 312 313 312 313 313 313 315 317 320 321 322 322 324 325 325 325 324 326 326 326 325 325 324 323 323 324 323 323
287 292 293 287 281 284 294 296 297 299 299 298 294 293 295 296 299 299 298 298 298 301 302 301 300 300 299 301 300 300 301 301 300 299 299 299 300 300 300 301 301 301 302 302 303 303 303 302 304 304 303 305 306 306 307 306 308 309 310 310 310 311 311 312 313 313 313 314 317 319 321 322 323 323 323 325 325 325 324 324 324 324 323 322 323 323 323
290 289 288 279 282 292 296 296 297 299 299 298 297 293 294 296 297 297 296 297 298 299 298 299 299 299 299 298 299 301 302 302 300 299 298 299 299 299 300 299 300 300 300 301 302 303 304 302 302 302 302 303 304 305 306 306 306 307 308 309 309 310 310 310 311 311 312 312 314 315 316 318 320 320 321 322 323 325 324 324 325 325 324 323 321 321 322
284 287 287 285 291 293 293 292 295 297 294 295 293 288 292 298 298 298 296 295 294 294 295 295 296 296 295 293 293 297 298 298 299 299 299 299 299 299 299 300 299 300 300 300 301 302 302 302 301 301 302 302 303 303 303 304 304 305 307 307 307 308 308 309 309 310 311 311 312 313 314 314 315 317 319 321 324 324 323 324 323 324 322 322 323 322 320
290 287 285 285 283 281 287 294 297 299 298 299 300 295 290 299 300 301 298 294 294 294 295 295 296 297 293 289 290 295 297 298 298 299 299 299 299 299 300 299 300 300 301 301 301 301 301 301 301 302 302 302 302 302 302 302 302 302 303 305 306 305 306 307 308 309 309 310 310 311 312 312 314 316 318 319 319 324 323 322 322 323 324 322 322 322 322
289 287 283 283 281 283 290 293 294 297 298 299 300 293 288 296 300 300 298 296 296 296 295 295 297 295 291 290 292 295 297 297 298 297 297 298 298 298 298 298 298 299 299 299 299 300 301 299 300 302 302 303 301 302 301 302 302 302 303 304 305 304 305 306 306 307 308 309 309 310 310 311 313 313 315 317 317 319 323 323 321 322 323 322 320 322 323
287 286 284 282 285 283 291 294 294 295 297 297 295 283 284 295 299 299 298 296 296 297 297 297 297 295 291 290 294 298 297 297 297 297 296 296 296 297 300 299 299 298 299 299 299 299 298 299 301 301 300 301 300 300 301 301 301 302 303 304 303 304 305 305 305 306 307 307 308 309 310 310 311 312 313 314 316 317 320 321 321 321 322 322 321 322 323
286 285 286 286 284 289 294 294 295 296 298 296 285 281 288 297 299 300 299 298 299 299 299 299 292 293 296 297 298 298 298 297 297 298 298 297 296 296 297 296 296 297 298 298 298 298 299 299 300 300 300 300 299 300 300 300 301 302 303 304 304 304 304 304 304 304 305 306 307 308 309 309 310 310 311 312 315 315 316 319 321 320 320 321 320 321 322
285 287 284 284 285 288 294 295 295 296 293 284 284 291 299 299 298 299 299 298 299 299 299 297 295 295 296 297 298 297 297 297 297 297 297 297 297 297 297 297 297 297 297 298 298 299 299 300 300 300 300 299 299 300 300 300 301 302 302 303 303 302 303 303 303 304 304 304 305 306 307 308 309 309 311 311 311 313 315 315 315 319 321 321 320 319 320
287 286 283 283 279 286 295 294 293 295 288 287 294 297 298 299 299 298 298 298 298 298 294 296 297 296 296 297 297 297 297 296 296 296 296 296 295 296 297 297 297 296 296 297 297 298 299 300 300 300 300 299 299 299 299 300 302 302 302 302 302 302 302 302 302 303 303 304 304 305 305 307 307 307 308 309 310 311 312 313 313 314 318 320 320 318 318
283 283 280 280 285 291 296 295 288 291 293 296 297 296 294 296 297 296 296 296 297 297 296 296 296 297 296 296 297 297 296 296 296 296 296 296 296 296 297 297 297 296 296 297 297 298 299 300 300 300 300 298 298 298 299 301 301 301 301 301 301 301 301 301 302 302 302 303 304 304 304 305 305 306 306 308 309 309 309 311 311 312 315 318 318 316 315
286 284 285 290 294 295 296 296 294 295 295 295 296 296 295 294 294 297 295 295 296 297 297 297 296 295 295 295 296 295 295 295 295 295 295 296 296 297 297 297 297 296 296 297 297 298 299 300 300 300 300 299 298 298 300 301 300 300 300 300 300 300 300 300 301 301 302 302 302 303 303 303 303 303 304 305 305 307 309 309 309 310 312 315 315 314 313
293 294 294 294 294 294 294 296 297 296 296 297 297 296 295 295 296 296 294 294 295 296 298 296 295 294 295 295 295 294 295 295 295 296 295 296 297 297 297 297 297 296 297 297 297 298 298 299 299 300 300 299 298 299 300 300 300 300 300 299 299 299 299 300 300 300 301 301 302 302 302 302 302 302 303 303 303 305 306 307 308 309 310 311 312 312 313
289 283 292 292 292 293 294 293 295 295 296 296 297 295 295 295 296 296 296 295 294 295 295 294 294 294 294 294 294 294 295 295 295 295 295 296 296 296 296 297 296 297 296 296 296 297 297 299 299 299 299 300 300 300 300 300 300 300 299 299 298 299 299 299 299 299 299 300 300 301 301 302 303 303 302 302 303 302 303 305 307 308 309 309 310 309 312
286 286 291 293 294 294 295 294 293 293 295 296 296 296 295 295 296 296 295 296 295 296 295 295 294 294 295 294 294 293 293 294 294 294 295 295 296 296 297 297 297 296 296 296 296 296 297 298 299 299 299 299 300 300 300 300 300 300 299 298 298 298 298 298 298 298 298 292 295 298 300 300 299 300 301 302 302 301 302 303 304 306 306 307 307 311 310
290 292 293 293 293 293 294 294 295 295 295 295 296 296 296 296 295 295 295 296 296 296 295 295 295 294 294 294 294 293 293 294 294 294 295 295 295 296 296 296 296 296 296 296 296 296 297 298 299 299 299 299 299 300 300 300 299 298 297 296 297 297 297 297 297 298 298 298 298 298 299 300 300 301 301 301 301 303 305 305 306 306 308 311 310 313 313
285 285 289 292 286 286 290 293 294 295 296 296 295 296 295 295 295 295 295 295 295 296 295 295 294 293 294 294 294 293 293 293 294 294 294 295 295 295 296 296 296 296 296 297 297 296 297 298 298 298 299 299 300 300 300 299 299 297 296 296 296 296 296 296 297 297 297 297 298 297 297 298 299 301 294 295 298 302 304 294 289 294 299 307 310 313 307
284 290 292 293 292 292 292 294 295 295 296 296 294 294 294 295 294 294 294 294 295 295 295 295 294 294 293 293 293 293 293 293 294 294 294 294 294 294 295 295 295 296 296 296 296 296 297 298 298 298 298 299 299 299 299 298 298 297 297 295 295 295 295 295 295 296 296 296 297 297 297 297 298 297 298 301 294 293 295 296 294 289 289 288 290 293 308
292 294 293 294 293 290 293 295 295 295 296 295 295 295 294 294 294 295 294 294 292 293 294 295 295 294 293 293 293 292 293 294 294 294 294 293 294 294 295 295 295 295 295 295 295 296 297 297 297 298 298 298 298 298 298 298 298 297 297 295 294 294 295 295 295 294 296 296 296 296 296 296 296 296 297 297 299 295 291 291 290 290 290 291 290 292 296
290 294 294 294 294 294 295 295 295 296 295 295 294 294 295 295 294 295 294 294 295 294 293 293 294 295 293 293 293 293 292 293 294 293 292 292 293 293 294 294 295 294 295 296 296 297 297 297 297 297 297 297 298 298 298 298 297 296 296 295 294 294 294 294 294 293 293 294 294 295 295 295 295 296 295 296 296 298 296 288 287 290 290 290 290 291 293
294 294 295 295 294 294 295 293 293 294 295 295 294 294 294 293 293 294 294 294 294 295 294 294 293 294 294 293 293 293 293 293 292 292 293 293 294 293 293 294 294 295 296 296 297 297 297 297 297 298 297 298 298 298 298 297 297 296 296 295 295 294 294 294 294 293 293 293 293 293 293 294 294 294 294 295 296 297 297 299 298 293 289 289 289 290 291
294 295 293 292 291 291 293 291 291 294 295 295 295 295 295 296 293 293 295 295 294 294 294 294 294 294 294 293 293 293 292 292 293 293 293 293 292 293 294 295 295 295 295 295 296 296 294 296 297 297 297 298 299 298 298 297 296 296 295 295 295 291 288 289 293 292 293 293 292 292 292 293 293 293 294 295 295 295 296 297 298 299 300 296 289 290 295
293 294 293 289 288 289 291 293 294 295 295 295 294 294 294 294 294 293 293 293 293 294 294 294 294 293 292 293 293 292 292 292 292 292 292 292 293 293 294 295 295 295 295 295 296 296 296 297 297 297 297 298 299 298 298 297 296 296 295 295 294 294 295 294 294 293 292 292 292 292 292 292 293 292 293 293 293 295 296 297 298 299 302 300 297 290 290
292 293 294 294 293 294 294 294 294 293 294 295 294 294 294 293 293 292 292 292 293 293 292 293 293 293 292 292 292 291 291 291 291 291 291 292 292 293 294 294 294 295 295 295 296 297 297 297 297 297 297 298 298 298 297 297 296 296 295 295 295 295 295 296 295 295 294 293 293 292 290 290 292 292 292 293 292 294 296 298 297 299 303 298 296 296 293
293 294 294 293 294 294 293 292 292 293 293 293 293 293 293 293 291 292 292 292 292 292 292 292 292 292 293 292 292 292 291 291 291 291 291 292 292 293 293 293 294 295 295 296 296 297 296 297 297 296 297 298 298 298 297 297 297 296 296 296 296 296 295 295 294 293 293 293 293 289 290 290 291 291 291 292 293 293 295 296 297 295 297 300 294 296 295
293 294 293 293 293 292 292 292 292 292 292 292 293 292 292 292 292 292 292 292 292 292 292 292 292 292 292 292 292 291 291 289 288 289 291 291 290 289 291 292 291 291 293 294 294 295 295 297 297 297 298 299 298 298 298 297 297 296 296 295 296 291 288 288 289 293 293 292 292 292 291 291 290 290 290 291 291 293 295 296 296 297 295 299 299 297 295
293 292 292 292 292 292 291 292 291 291 291 292 292 291 291 291 291 291 291 291 291 291 292 292 291 291 291 292 289 288 288 287 286 287 288 287 287 287 287 290 291 289 291 290 290 293 295 297 296 297 299 299 299 298 298 298 297 296 295 292 295 295 292 288 292 292 292 290 291 291 290 290 291 291 291 291 292 293 295 295 296 295 295 296 298 297 296
291 289 289 290 291 291 290 291 291 291 292 291 291 293 293 293 292 291 291 291 291 292 292 291 291 292 289 288 287 286 286 286 286 285 286 286 286 286 287 288 290 291 290 293 295 296 297 297 297 298 299 299 299 299 299 298 297 296 296 296 295 294 291 290 290 293 292 291 291 291 292 291 291 291 291 291 293 293 295 295 294 296 296 299 297 296 295
291 290 291 292 291 289 290 290 292 292 292 293 293 293 292 292 292 292 292 292 292 291 290 291 290 288 287 286 285 285 285 285 288 287 285 285 285 286 287 289 292 294 296 297 297 297 297 298 298 298 298 298 299 299 300 298 297 296 296 295 295 294 294 293 293 293 292 291 291 291 291 290 291 291 290 291 293 293 295 293 294 294 295 297 295 294 289
294 294 293 293 293 293 293 292 292 292 292 291 292 293 293 293 292 292 292 291 291 291 292 291 288 287 286 286 284 285 284 284 284 283 284 285 286 286 288 290 293 295 296 297 297 297 298 299 298 296 296 297 298 300 299 298 298 297 296 295 294 293 293 293 293 292 292 292 292 292 291 291 291 289 290 292 294 295 295 294 294 294 294 292 292 292 291
294 293 293 293 293 293 293 293 293 293 292 292 290 291 292 292 292 292 292 292 293 293 292 290 288 286 285 285 285 285 284 284 284 284 284 285 286 287 287 288 291 293 295 296 298 298 298 299 288 286 292 296 297 299 299 297 298 297 296 295 294 293 292 292 293 293 292 292 291 291 291 289 289 290 292 294 295 296 295 294 294 295 295 292 291 291 291
294 293 293 293 293 293 293 293 293 293 293 293 292 292 292 293 292 293 293 293 293 292 292 291 288 286 285 285 285 284 284 285 286 285 286 285 286 286 286 287 290 292 294 294 295 296 297 297 288 286 293 297 299 299 298 288 297 297 296 295 294 293 292 292 292 293 293 292 292 291 289 290 291 293 292 294 296 297 295 294 296 296 294 292 292 292 292
294 294 293 293 293 293 293 293 294 294 293 292 292 292 293 293 293 293 293 293 292 292 292 290 289 288 286 285 285 285 285 285 284 284 285 284 285 285 287 288 289 292 291 290 294 296 297 293 288 292 298 298 298 300 296 288 288 296 297 295 293 292 292 291 291 292 292 294 292 293 292 292 292 293 294 295 295 295 294 294 293 294 293 293 293 292 292
293 294 294 294 294 293 293 294 294 294 294 292 293 292 293 293 293 293 292 292 293 293 291 290 290 289 288 287 286 286 285 285 285 284 284 285 286 286 286 289 292 292 292 293 294 296 296 292 295 296 298 298 298 299 295 290 288 296 298 297 294 292 290 291 292 293 292 293 293 293 294 294 294 294 294 296 295 294 292 295 294 292 291 292 291 291 291
292 293 293 293 293 293 293 293 293 293 294 294 293 293 293 293 293 293 293 292 293 292 290 290 289 287 287 287 287 287 287 288 286 285 285 286 288 289 290 293 294 295 293 289 294 295 292 287 292 298 297 298 298 298 296 292 290 296 298 297 295 293 292 292 292 292 293 293 293 291 293 292 292 292 292 293 294 293 294 294 294 294 293 293 293 293 291
294 294 294 294 294 294 293 293 293 294 294 294 294 294 294 294 294 293 292 292 292 292 291 291 290 290 290 290 290 290 290 290 291 290 289 288 287 289 288 290 293 295 294 293 293 293 292 291 295 295 295 295 297 292 294 291 293 298 297 297 296 294 293 292 292 292 292 292 292 292 292 293 292 292 291 292 292 294 294 294 294 293 293 293 292 292 291
295 295 295 295 295 295 295 294 294 294 295 295 295 295 295 294 293 293 293 293 292 291 290 290 288 290 291 291 291 290 290 290 290 291 291 290 289 288 288 288 292 293 287 289 291 293 295 295 294 291 292 292 293 289 286 289 295 298 297 297 296 295 294 293 291 291 291 291 292 293 292 292 291 290 290 290 290 291 292 293 293 293 293 292 291 291 291
294 293 293 294 294 295 295 295 294 294 295 296 296 295 295 295 295 294 294 293 292 292 290 290 290 287 287 287 288 289 289 290 289 290 291 292 292 291 290 291 293 292 286 290 293 295 294 294 293 292 287 286 289 286 285 293 298 297 297 296 295 295 294 293 292 291 291 290 290 290 291 291 291 289 289 289 289 289 290 290 291 291 292 292 291 291 291
294 294 294 294 294 294 295 295 295 294 294 294 296 297 296 295 295 294 293 293 292 291 290 289 290 290 289 290 289 288 288 289 289 290 290 291 291 292 292 291 292 290 285 290 292 293 293 292 291 287 284 285 285 285 290 296 298 297 297 296 296 296 295 294 294 292 291 289 289 289 289 289 290 290 289 289 288 288 288 289 290 290 291 291 291 291 291
295 295 295 295 295 294 294 294 293 292 294 295 296 296 296 295 295 295 294 294 292 292 290 289 289 289 290 290 289 289 290 290 290 289 288 289 289 291 291 287 291 290 289 286 291 293 293 291 287 284 285 284 285 285 293 296 296 296 296 296 296 295 295 294 293 293 292 291 289 289 288 289 289 290 289 290 289 289 289 289 289 290 290 290 290 290 290
295 296 296 292 295 294 294 295 295 294 294 294 295 295 295 295 295 294 295 294 293 292 292 291 290 290 290 290 290 290 290 289 290 290 291 290 290 289 288 288 289 287 285 285 292 293 291 284 284 285 284 285 285 291 294 294 294 295 295 294 295 293 294 294 294 294 294 293 292 291 289 289 289 289 289 289 289 290 289 289 289 290 290 290 291 291 291
295 295 296 296 297 296 296 295 295 294 293 293 293 294 295 295 295 294 295 295 294 294 293 292 291 291 291 291 290 289 288 289 290 290 291 290 288 287 286 286 286 286 287 291 291 290 289 288 286 284 284 285 284 293 294 294 294 294 294 294 294 294 294 294 294 294 294 293 291 290 289 290 290 290 289 289 289 289 289 288 288 288 289 289 289 289 288
295 295 296 296 296 296 295 295 293 293 292 291 293 295 295 296 296 295 295 295 295 294 294 294 292 292 291 291 291 291 292 291 288 289 290 291 292 292 291 291 288 286 285 286 286 286 282 284 284 284 285 284 290 293 293 293 293 293 293 293 293 294 293 293 294 293 293 293 292 293 293 292 292 291 290 290 289 289 289 289 289 289 289 289 289 288 288
296 296 296 296 297 296 294 293 293 292 293 294 294 294 295 296 296 296 295 295 295 294 294 294 293 293 292 290 291 291 291 291 291 289 291 291 291 291 289 285 284 284 287 291 293 291 285 284 285 285 284 286 293 293 293 292 291 291 290 291 290 291 291 291 292 292 292 292 292 291 292 291 291 291 290 289 289 289 288 288 288 289 289 289 288 288 288
296 296 295 295 295 295 295 294 294 293 294 294 293 294 296 296 294 294 295 295 295 293 294 294 294 293 292 292 290 290 291 291 291 292 291 290 291 291 290 290 289 286 286 290 292 291 286 283 284 286 289 292 292 292 293 292 292 291 291 290 290 290 289 289 287 288 290 290 290 290 290 289 289 288 288 288 288 288 288 287 287 285 285 286 287 287 286
294 294 294 294 295 295 296 296 296 295 295 294 294 294 294 293 293 293 295 295 295 294 292 293 293 293 293 292 292 291 291 291 290 288 290 290 289 288 288 289 286 287 288 288 290 291 292 292 291 290 290 291 291 291 290 291 290 290 289 290 290 290 290 290 290 291 291 291 290 290 290 290 290 289 289 288 287 287 287 287 287 287 287 287 286 286 286
296 295 294 297 295 295 296 296 296 296 295 294 294 294 294 293 293 294 294 291 295 295 294 293 292 293 293 293 292 292 291 291 290 288 288 290 289 289 287 287 288 286 286 289 291 292 291 288 286 287 287 290 290 289 287 287 289 289 289 288 288 290 289 290 290 290 290 291 290 289 290 290 290 289 288 288 287 287 286 286 286 286 286 286 285 285 285
Wind_Speed
5 9 11 9 3 6 6 4 3 2 2 3 3 1 2 2 7 1 9 12 16 13 11 11 10 10 11 11 11 10 10 11 12 13 13 14 14 14 14 14 14 14 14 13 13 13 13 13 12 11 9 7 7 7 7 6 4 4 3 2 5 4 3 2 2 3 3 5 6 6 6 6 6 6 6 6 6 7 8 8 7 8 9 9 9 9 9
6 9 11 10 11 4 3 5 4 3 4 5 5 8 9 6 8 12 13 16 12 11 12 9 9 9 10 9 9 10 10 11 12 12 12 13 14 14 14 14 14 13 14 14 13 14 14 13 12 11 10 10 9 8 6 5 7 8 5 4 3 2 3 2 2 3 3 4 4 5 5 6 6 6 5 6 5 6 7 8 8 9 9 9 9 10 10
8 7 6 9 12 7 4 6 6 6 6 8 8 9 10 14 13 14 15 13 11 10 9 10 8 8 8 9 10 11 10 11 11 11 11 12 14 14 14 14 14 13 13 13 13 14 13 13 12 11 10 10 10 9 8 7 5 5 5 5 3 3 3 3 2 1 1 3 4 5 5 5 6 6 6 6 6 7 9 7 8 8 8 9 9 9 10
7 9 11 10 10 8 7 5 3 1 5 6 8 6 7 5 9 12 14 8 8 10 10 10 10 10 10 11 11 10 10 11 11 11 11 13 13 14 14 13 13 13 13 13 13 13 13 12 12 11 10 10 10 10 8 8 8 7 6 6 6 5 4 2 3 1 1 2 3 4 4 6 5 6 7 6 7 7 7 7 7 8 8 9 8 9 9
6 10 11 11 10 8 10 9 10 6 4 5 7 9 11 10 7 9 4 6 9 12 11 12 12 11 11 11 10 10 11 10 10 11 12 13 13 13 13 13 12 12 12 12 12 12 11 11 11 12 11 10 10 9 9 8 6 6 7 6 7 7 6 6 4 4 3 3 1 1 3 4 5 6 6 7 8 8 9 8 8 9 9 9 10 9 9
6 11 13 10 8 9 6 5 5 6 7 5 4 5 7 8 7 6 9 11 13 13 13 13 14 13 12 10 10 9 9 9 10 11 11 12 12 12 12 12 12 11 10 10 10 11 11 11 11 10 10 10 9 8 8 8 7 7 6 7 7 7 7 6 6 6 5 4 3 2 2 2 3 5 6 7 7 7 8 9 9 9 10 11 10 11 10
7 6 11 9 10 7 7 0 5 4 4 7 11 8 6 6 7 13 15 14 14 11 12 14 13 13 12 11 11 10 9 9 9 11 11 11 11 11 11 12 12 11 11 11 11 10 10 10 10 9 10 10 9 9 8 7 7 6 6 7 7 6 6 6 6 6 6 6 5 5 5 4 3 4 5 5 6 6 7 8 9 10 10 11 7 8 11
5 5 8 7 2 7 4 5 3 5 5 9 10 7 5 6 7 10 12 12 12 12 15 13 13 12 13 12 10 9 8 8 9 9 9 10 10 11 10 10 10 10 10 10 9 9 8 9 9 9 9 9 8 8 7 6 6 6 6 6 7 6 5 6 6 6 6 5 5 5 4 4 5 5 5 5 6 6 6 7 7 8 9 8 10 12 13
2 3 5 1 5 6 7 4 5 1 3 5 5 5 4 6 8 10 14 14 14 14 14 15 14 14 12 10 9 8 10 11 11 11 10 10 10 10 9 9 9 8 8 8 8 7 7 8 8 8 8 8 8 7 8 8 8 7 5 5 6 5 5 6 6 6 6 7 6 6 5 5 6 6 6 6 6 6 7 7 8 9 9 9 6 9 12
6 5 8 6 4 7 4 6 5 4 5 8 6 4 6 4 7 10 13 15 16 16 15 14 14 13 11 8 8 7 9 9 10 10 10 10 9 9 9 8 6 5 5 5 6 6 7 8 8 7 7 6 7 8 7 8 8 9 8 6 5 5 5 6 6 6 6 6 7 7 7 7 7 6 6 7 7 6 7 8 9 9 9 8 9 12 12
5 6 9 7 5 3 2 5 5 5 4 5 6 4 4 5 6 9 11 13 14 14 14 15 13 9 7 8 8 8 8 8 8 9 8 9 8 8 8 7 6 6 5 5 4 5 4 5 6 6 5 5 5 4 3 4 4 4 5 5 6 7 7 7 7 7 7 7 7 7 7 8 7 8 8 7 7 8 7 8 8 9 10 7 9 11 10
8 7 8 6 4 3 2 4 3 4 3 3 6 6 4 7 9 8 10 11 12 12 12 11 9 5 4 9 8 9 9 9 8 7 8 7 6 8 7 7 6 5 5 4 4 4 4 5 4 5 6 6 6 5 5 5 5 5 5 7 7 7 8 8 8 8 7 7 7 7 7 8 8 8 8 8 8 8 8 8 8 9 10 10 11 10 9
7 6 6 4 4 5 4 5 5 4 3 4 4 4 7 6 8 8 9 10 10 10 10 8 5 9 10 10 9 7 9 8 9 8 7 7 6 7 6 6 5 5 5 5 5 5 4 5 5 5 5 5 6 5 6 6 6 6 7 7 7 8 8 8 9 9 8 8 8 8 8 8 8 8 8 8 9 8 8 8 9 9 10 10 11 10 9
7 5 6 1 5 3 8 4 4 5 4 4 2 7 4 5 7 8 7 8 7 6 4 7 10 10 11 11 9 8 7 7 7 6 6 6 6 6 5 4 5 5 4 4 5 5 5 5 5 5 5 6 5 6 6 6 7 7 7 8 8 9 9 9 9 9 9 9 9 8 9 9 9 9 9 9 9 9 8 8 10 11 10 10 10 10 10
3 3 6 6 4 4 7 5 1 9 2 6 3 5 7 3 7 8 6 5 6 9 12 10 10 10 9 9 8 8 7 6 6 6 6 6 5 6 5 5 7 7 5 5 6 6 5 5 5 5 5 5 5 5 6 6 6 7 8 8 8 9 9 9 9 10 10 11 10 9 9 9 10 10 10 10 10 10 10 10 10 12 11 9 8 5 3
4 4 2 4 5 3 5 6 2 6 7 5 6 6 8 7 6 7 6 6 5 6 5 6 6 7 8 7 6 6 6 6 5 5 5 5 5 5 5 5 6 7 6 5 5 5 5 5 5 5 5 5 5 6 6 6 6 6 7 7 8 8 8 9 10 10 11 11 11 10 11 10 11 11 10 10 10 10 10 10 10 11 10 9 8 7 7
2 3 2 3 2 5 6 8 7 8 7 5 5 6 6 5 6 6 6 6 5 5 6 6 6 6 5 6 6 5 5 5 5 5 5 5 5 5 6 6 6 7 7 7 7 7 7 7 6 5 5 6 7 8 8 7 8 8 8 9 8 9 9 9 10 10 11 11 11 12 11 11 12 11 12 11 11 11 11 11 11 12 10 10 10 8 8
8 7 6 5 5 6 7 7 7 8 10 10 8 6 6 7 5 5 5 6 4 3 2 5 4 5 5 5 5 5 4 4 4 4 4 4 4 4 5 5 7 7 6 6 6 6 6 6 5 5 5 6 7 7 7 7 8 9 9 10 10 10 10 10 11 11 11 11 12 12 13 12 12 12 12 11 11 11 12 11 12 12 12 11 12 12 9
3 4 5 6 6 7 7 8 8 9 7 7 6 8 6 6 6 7 6 5 4 5 5 6 5 5 4 4 4 3 3 4 4 3 3 4 4 5 5 5 5 6 6 6 6 6 6 5 5 5 5 6 7 7 8 9 10 10 11 11 12 11 11 11 11 11 12 10 10 11 12 12 11 12 12 12 12 13 13 13 12 12 12 12 12 11 10
0 6 7 7 7 6 7 6 6 7 7 6 7 6 6 6 6 5 6 5 5 4 5 5 4 4 4 3 3 3 3 3 3 3 4 4 4 5 5 5 6 6 5 5 5 5 6 5 5 6 7 8 9 10 11 11 11 12 12 13 13 14 14 13 12 12 12 11 12 11 11 11 12 13 13 12 12 13 13 13 13 12 12 11 8 7 8
6 9 8 7 7 7 5 5 5 5 6 8 8 8 8 8 7 7 6 4 5 5 5 4 3 3 3 4 3 4 3 3 3 4 4 4 5 5 5 5 5 5 5 5 5 6 7 7 8 8 9 9 10 11 11 11 12 12 12 14 14 15 14 13 13 12 12 13 13 12 11 12 12 13 12 13 13 13 12 12 12 10 6 1 2 2 2
3 3 6 7 3 4 6 6 6 6 5 6 5 5 5 3 3 2 3 5 4 4 4 4 5 3 4 5 5 5 4 4 6 5 5 5 5 5 6 6 6 5 5 5 5 6 6 7 7 8 9 9 10 11 12 12 12 13 13 13 14 13 12 12 11 11 11 12 12 12 12 12 12 13 15 16 15 12 11 9 12 9 3 2 2 2 6
1 4 7 2 3 4 6 7 6 4 3 3 3 3 2 3 2 2 3 2 6 4 3 4 2 3 2 5 6 5 5 5 4 5 5 7 7 7 7 7 6 5 4 4 5 6 7 7 8 9 9 10 11 11 11 12 13 13 14 12 12 11 11 11 11 11 11 11 12 12 12 12 12 13 14 13 16 19 20 3 5 7 8 9 10 11 4
5 4 4 2 3 4 7 6 4 3 1 1 1 2 2 2 3 3 3 1 3 5 5 4 4 6 1 4 4 6 5 5 6 6 7 7 6 6 6 5 5 4 4 4 5 6 7 7 8 9 10 10 11 12 12 12 13 13 13 11 11 11 11 11 11 10 11 12 12 12 12 12 12 12 13 14 13 9 12 7 4 3 5 6 9 10 13
3 5 4 3 3 3 2 4 2 1 1 4 3 3 6 3 2 3 0 5 5 3 3 4 8 8 7 4 4 6 6 7 7 8 8 7 5 6 5 5 4 4 4 4 5 6 7 8 9 9 9 10 11 11 11 12 12 12 12 11 12 11 11 12 12 11 11 12 12 12 12 12 12 12 12 12 13 12 1 2 0 0 1 3 7 8 11
2 4 3 4 3 3 0 1 3 2 2 2 3 2 3 3 7 5 4 4 3 3 3 5 4 4 6 5 6 7 7 7 7 8 7 6 7 6 5 4 4 4 4 5 6 6 7 8 9 10 11 11 11 11 11 11 11 12 12 11 12 11 11 11 11 11 11 11 11 11 11 11 11 11 11 12 13 13 13 7 3 2 4 4 6 8 8
2 1 2 2 2 1 2 4 4 4 2 2 3 2 5 8 5 3 6 2 2 3 5 6 5 5 5 5 6 6 6 7 8 7 6 6 7 6 5 4 5 5 6 6 6 6 7 8 9 10 10 11 11 12 12 12 11 11 11 11 11 11 11 10 11 12 11 11 11 11 10 10 10 10 11 11 12 13 13 13 10 9 8 7 6 9 8
2 2 1 2 1 0 1 2 2 1 1 1 1 4 4 2 4 4 4 3 4 3 3 5 3 3 5 5 6 7 6 7 7 7 7 7 6 5 5 5 6 6 6 6 7 7 7 8 9 9 10 10 11 12 12 12 12 12 11 11 11 10 11 11 8 10 10 11 10 10 10 10 10 9 10 11 11 12 12 13 12 10 8 7 7 6 6
2 2 1 2 2 2 2 1 1 2 1 1 2 3 3 3 4 3 3 3 3 3 4 4 3 4 4 5 5 6 6 6 7 7 7 6 6 5 5 6 6 7 6 6 7 7 7 8 9 9 10 11 11 11 11 11 12 12 11 11 10 10 9 8 7 7 7 8 10 10 9 6 8 9 10 11 10 12 13 12 9 7 4 4 8 8 7
2 2 1 1 2 2 3 4 3 3 5 4 2 4 3 3 4 4 3 3 4 4 3 4 5 5 5 6 6 6 6 6 6 6 7 6 5 5 5 6 7 7 7 8 6 6 8 8 9 10 10 11 11 11 11 11 10 11 12 11 11 10 9 8 7 8 8 10 11 7 7 6 8 9 9 10 10 12 12 10 6 1 3 3 5 6 7
4 3 2 1 2 3 4 4 4 4 5 3 2 4 4 4 5 5 3 3 2 3 4 5 5 6 6 5 5 5 5 4 4 5 6 6 3 3 6 6 5 3 4 6 8 8 9 9 8 9 10 11 12 11 11 10 11 11 9 9 9 9 5 7 9 9 9 8 7 6 5 5 7 7 7 10 10 10 11 9 7 2 4 7 6 7 6
4 3 4 4 5 5 4 4 4 5 4 2 4 5 5 5 5 4 3 3 3 5 6 6 6 6 5 5 5 5 3 2 2 3 3 3 3 4 4 7 8 7 8 6 6 9 9 9 9 9 10 11 11 11 11 11 11 9 9 9 9 10 9 9 8 7 6 4 3 2 2 5 7 7 7 9 9 10 8 7 4 3 2 2 4 8 8
4 5 5 5 5 4 5 4 5 6 5 4 3 5 5 5 4 3 3 3 4 5 6 4 4 5 5 3 2 2 2 3 4 4 4 4 4 4 4 6 7 7 5 8 9 9 8 7 8 9 9 10 10 11 12 12 10 7 8 9 9 9 8 8 6 6 5 3 2 3 4 5 6 7 8 9 9 8 6 4 3 3 3 1 7 6 6
4 4 5 4 5 6 6 6 4 5 4 2 4 5 5 4 4 3 3 4 5 6 5 4 4 4 3 2 1 1 2 5 3 2 1 3 4 4 5 7 7 8 7 7 7 6 5 7 8 8 9 11 10 10 11 12 9 7 8 8 8 9 8 8 8 6 5 3 3 3 4 4 5 6 6 9 9 5 6 1 3 5 1 5 8 7 9
3 3 2 2 3 3 4 5 4 5 3 4 6 6 5 4 4 3 1 4 5 6 2 3 4 4 3 2 0 1 2 4 5 5 5 4 4 5 6 7 7 7 6 6 5 4 6 6 7 8 10 11 10 9 8 10 10 8 8 8 8 7 7 7 7 6 6 5 3 3 4 5 5 6 7 8 8 6 3 1 5 2 4 7 6 8 8
5 3 1 1 2 3 3 3 2 2 2 4 0 4 4 4 4 4 5 5 4 5 3 4 4 4 3 1 1 2 4 4 6 7 4 4 4 4 4 5 7 6 6 6 3 4 6 5 10 12 9 9 8 7 8 8 9 9 7 7 6 6 6 6 6 5 4 4 3 3 3 4 6 7 7 6 5 0 4 1 2 3 6 6 7 7 7
3 2 1 1 1 2 3 3 1 2 4 5 5 5 6 4 4 5 3 4 4 1 0 3 4 4 3 2 1 1 3 4 3 2 2 2 2 3 4 4 7 6 7 4 4 6 6 7 10 13 11 7 7 7 8 7 8 8 6 6 6 6 6 6 6 6 5 3 2 2 1 3 4 6 4 3 2 1 1 2 4 5 5 7 7 7 8
2 1 1 1 1 1 1 1 1 2 4 3 5 7 6 5 4 4 5 4 3 1 1 2 3 4 3 2 2 2 5 4 4 4 4 3 3 3 4 5 4 3 2 3 6 6 5 8 10 9 9 6 7 7 8 9 11 9 7 7 6 6 6 6 6 6 6 5 4 1 2 2 2 2 2 2 1 3 2 4 5 5 5 6 8 8 8
3 2 2 1 0 1 1 1 2 3 3 5 5 5 6 6 5 4 4 4 3 1 2 3 3 4 4 4 3 2 4 5 5 4 4 4 3 2 4 3 3 2 2 4 6 6 5 7 8 9 6 6 7 7 8 9 13 9 7 7 7 6 6 6 6 6 6 5 5 5 6 6 5 4 3 5 4 4 5 6 8 8 6 8 8 8 9
5 5 5 4 3 2 1 2 2 4 4 4 5 6 6 6 5 6 5 2 1 2 3 2 3 3 4 5 6 5 5 5 5 5 5 4 4 6 6 6 4 0 3 5 5 4 6 10 9 6 6 6 7 7 7 10 12 7 7 8 7 7 6 6 6 6 7 8 6 5 6 6 8 8 7 4 5 5 5 6 7 9 9 9 10 9 10
6 6 5 5 5 4 4 3 3 4 4 5 5 5 5 5 5 4 4 3 2 2 3 3 4 6 6 7 6 5 4 4 6 7 8 5 5 5 5 2 3 2 4 4 5 6 8 7 6 6 7 8 6 8 8 11 10 5 7 7 8 8 7 7 6 6 7 7 8 8 8 7 7 7 8 9 7 6 7 7 8 9 9 9 9 9 9
8 7 8 8 6 5 5 3 3 4 4 5 5 6 6 5 4 5 4 1 2 3 3 4 0 4 4 3 2 3 4 5 5 5 5 5 4 2 3 1 2 3 6 5 7 7 3 2 5 6 7 8 7 11 13 10 6 5 6 7 8 8 8 8 8 7 6 6 7 7 7 8 7 7 8 8 7 8 8 7 8 8 9 9 9 9 9
8 9 8 7 7 6 6 4 3 4 5 5 5 6 6 6 6 5 5 4 3 3 3 3 5 5 5 5 5 4 4 4 4 5 5 4 3 3 4 3 2 5 5 4 5 4 3 3 5 6 8 8 8 13 15 9 4 6 6 6 7 7 7 8 8 8 7 7 7 7 8 6 6 6 7 7 8 7 8 9 8 9 9 9 11 11 11
7 7 8 7 8 7 6 4 3 4 5 6 6 7 7 6 6 6 5 5 4 4 3 3 3 4 4 4 4 4 4 4 5 5 5 4 5 4 2 2 2 5 4 4 4 3 3 4 5 8 10 12 14 15 11 5 6 5 6 6 6 6 7 7 7 8 8 7 8 7 7 8 7 7 7 7 7 7 8 8 8 8 10 11 11 10 9
7 7 8 8 8 7 7 5 4 4 5 6 6 7 7 7 7 7 6 5 5 4 3 3 3 3 3 3 3 4 2 1 2 2 3 4 4 5 4 3 1 0 3 6 5 2 4 5 6 8 9 12 13 15 9 5 4 5 5 5 5 6 6 6 7 7 8 8 8 7 8 8 8 8 8 8 9 9 9 10 9 7 7 8 8 8 8
8 7 8 7 8 9 8 5 3 3 4 5 7 6 6 7 7 7 6 6 5 5 5 4 3 3 3 3 3 2 2 3 2 2 2 3 5 5 4 4 3 4 4 8 3 3 5 6 7 8 10 12 13 10 3 4 4 4 4 4 4 5 5 6 6 7 7 7 7 7 7 7 8 7 7 7 8 8 8 8 9 9 8 8 8 8 9
7 6 7 8 8 7 10 7 5 4 4 5 6 6 6 7 7 7 6 6 5 5 5 4 4 3 3 3 3 3 4 4 3 3 2 3 4 4 6 4 5 2 4 2 4 3 4 4 6 8 10 11 13 7 4 3 4 4 4 4 4 4 4 4 5 7 7 6 7 8 7 7 7 7 7 6 6 6 6 7 7 7 6 7 7 7 7
8 7 6 7 7 7 5 8 7 7 6 5 5 5 5 6 7 7 7 6 5 5 5 5 4 4 4 4 4 3 3 2 2 4 3 2 3 4 4 3 4 5 1 3 3 5 4 3 5 8 10 11 9 2 4 4 5 4 4 5 5 5 3 3 4 4 4 5 5 5 5 6 7 7 6 6 6 6 5 5 6 5 5 5 5 5 5
8 8 7 5 6 7 9 11 10 6 6 5 5 5 6 6 6 7 7 7 7 6 6 6 6 5 5 5 3 3 3 2 3 1 4 2 2 3 5 6 4 4 5 3 3 4 4 2 4 7 10 12 4 4 4 5 5 5 6 4 3 3 4 4 3 3 4 5 5 5 5 6 6 6 5 5 6 5 7 6 5 5 5 5 6 7 6
8 7 7 6 6 6 7 7 7 7 7 4 4 4 4 5 6 7 6 7 7 6 6 6 6 6 6 6 5 5 4 4 3 1 2 2 1 2 3 3 3 3 4 3 1 2 7 4 6 7 8 2 4 3 4 4 4 5 3 4 5 4 6 6 6 6 6 5 5 5 5 4 4 6 6 5 5 5 5 5 6 6 8 5 4 5 5
7 7 7 7 6 6 6 6 6 6 5 3 2 7 7 5 6 6 5 5 6 7 7 6 5 6 6 5 5 5 5 5 4 3 3 4 3 3 2 3 4 3 3 2 1 1 1 2 1 2 3 2 3 3 3 3 3 3 3 3 3 4 4 4 5 4 6 4 5 4 5 5 6 6 5 5 5 5 5 5 5 4 4 4 4 4 4
9 7 6 5 5 4 5 6 7 7 6 4 4 8 9 6 5 5 6 6 6 7 7 7 7 6 6 6 6 5 6 5 6 6 4 4 4 5 5 4 4 4 5 4 2 1 0 2 3 1 6 1 2 3 5 2 3 2 2 4 4 3 4 4 4 3 3 5 4 4 6 6 5 6 5 5 5 6 5 5 5 5 5 5 5 5 5
Wind_Direction
7 2 4 10 26 25 40 26 30 304 200 215 191 19 18 341 258 294 113 127 125 136 139 147 129 129 138 142 136 133 133 128 130 122 108 101 98 95 91 88 85 81 77 70 68 76 84 83 91 104 100 93 93 93 97 103 111 106 106 132 130 137 139 164 166 191 175 186 191 200 204 212 215 209 213 221 212 224 223 215 213 219 213 208 201 206 205
286 299 304 346 356 28 81 58 47 61 51 74 80 68 58 78 94 114 122 109 108 128 135 128 125 128 134 132 129 134 139 139 128 118 115 106 97 92 88 85 80 77 75 76 73 67 61 65 74 75 76 86 93 91 89 117 130 123 134 102 81 86 108 122 147 189 188 183 199 213 210 210 213 215 222 232 232 229 231 228 221 222 225 219 214 211 213
235 225 236 261 265 298 355 17 22 44 69 66 65 68 78 89 85 94 102 104 107 107 122 119 120 114 131 144 146 141 130 129 125 121 114 104 98 94 91 85 79 74 72 68 67 66 65 62 58 60 64 64 60 68 83 77 59 72 77 108 123 89 113 116 173 203 197 202 194 199 210 218 225 227 220 225 239 240 241 232 231 225 227 221 219 216 215
211 199 209 211 216 228 244 257 255 14 39 61 44 51 23 108 123 117 111 111 125 134 138 140 140 151 145 138 130 134 133 128 130 126 111 99 94 90 85 83 80 74 67 63 61 58 56 57 55 51 48 53 55 56 45 60 70 67 63 49 60 60 47 30 12 345 149 185 208 204 196 208 221 243 238 238 238 237 242 239 231 235 226 226 218 217 220
222 196 204 199 198 212 232 220 216 176 99 88 78 69 60 62 127 148 166 110 133 137 148 144 145 140 131 132 133 133 133 130 125 113 96 89 83 80 78 75 72 67 64 59 52 49 50 44 46 44 41 44 44 39 45 33 53 78 70 63 60 50 38 26 31 4 334 335 314 214 217 220 197 222 230 230 240 235 231 232 237 230 217 224 225 220 219
241 206 192 189 205 222 228 32 54 152 150 137 107 76 54 46 37 64 89 116 128 140 150 144 134 134 133 129 121 121 121 114 106 96 90 87 83 77 73 70 67 61 56 52 47 44 43 40 39 40 34 27 30 38 33 39 28 33 71 71 55 47 40 38 27 10 353 345 318 298 280 232 226 234 238 239 236 235 238 240 240 241 237 229 228 226 223
246 199 178 193 217 222 62 172 51 50 106 124 113 103 69 59 80 100 105 121 139 156 133 134 129 123 121 129 132 129 119 100 91 88 83 80 79 78 71 63 58 56 53 47 42 36 32 30 29 29 31 22 15 27 28 23 23 27 34 53 54 39 33 23 21 16 4 6 343 343 315 309 273 256 260 270 259 246 240 235 232 230 240 240 245 244 237
354 227 186 208 177 75 106 92 97 69 114 119 117 99 120 134 131 118 120 122 117 107 107 113 119 126 116 107 98 99 101 110 103 97 89 82 74 69 61 58 49 44 43 38 36 35 28 29 23 21 22 14 12 12 9 8 12 9 19 26 48 35 17 19 5 0 359 347 352 330 321 305 285 266 259 256 259 257 251 251 247 239 237 217 227 239 239
212 252 241 181 106 147 99 106 112 170 135 188 209 240 142 160 157 149 138 127 119 121 123 124 128 125 116 98 86 86 93 92 89 89 87 87 82 74 66 59 58 43 33 37 27 23 32 24 22 20 12 10 360 6 7 360 1 352 4 18 21 21 6 3 357 349 348 336 341 328 324 309 295 290 278 266 258 252 246 244 246 242 239 244 244 248 244
219 236 239 180 197 230 120 48 61 357 8 359 5 66 120 154 160 155 146 138 139 137 140 141 145 146 129 120 115 108 102 93 91 88 90 92 94 94 88 84 89 75 56 40 34 20 26 15 15 15 1 0 11 2 2 353 360 345 338 356 354 350 349 340 338 338 332 330 326 330 320 316 325 319 306 287 274 253 247 245 243 242 248 235 234 239 237
224 241 257 261 252 70 38 79 21 38 346 323 325 281 192 143 171 145 144 142 145 147 148 150 161 171 163 134 128 128 110 94 85 86 76 69 69 72 68 54 48 63 59 66 40 18 44 25 9 351 356 357 6 334 12 334 324 308 333 337 331 334 331 322 324 321 318 319 315 317 319 319 325 316 306 298 285 274 255 248 252 254 247 245 249 246 243
251 252 260 274 38 112 72 52 15 24 343 32 277 242 170 147 148 149 137 142 145 145 150 156 178 201 184 123 126 116 105 97 85 73 77 76 69 64 56 40 22 38 32 36 52 37 28 16 6 355 352 357 352 346 342 342 328 333 340 338 327 324 324 323 313 307 299 301 305 304 306 309 308 311 310 301 290 282 272 258 251 247 248 250 248 246 240
263 264 259 114 115 71 11 19 348 5 328 281 209 245 103 165 141 154 144 145 148 148 154 182 104 58 61 103 113 110 103 102 97 93 76 68 53 56 51 47 30 16 23 30 18 21 17 3 3 352 356 349 336 343 335 325 341 339 335 324 327 325 318 311 307 306 311 308 307 304 298 298 297 291 293 297 297 288 280 272 264 259 255 254 254 253 245
264 268 268 264 79 10 343 344 0 356 291 198 111 87 130 120 133 131 145 140 134 130 140 82 82 91 102 108 108 103 94 83 74 64 62 55 54 53 51 47 46 12 5 23 12 11 6 2 3 351 355 343 333 343 330 337 338 332 327 326 318 313 303 304 304 302 299 297 297 296 290 286 285 282 280 282 285 284 276 277 275 267 266 261 256 255 253
297 265 267 250 221 71 329 345 188 8 346 81 137 120 93 116 113 115 108 130 137 109 83 91 97 102 102 106 99 91 82 71 63 56 46 42 34 33 19 17 39 7 354 8 4 356 357 0 357 348 343 336 339 345 332 332 334 332 326 313 310 311 312 307 304 298 293 289 284 281 280 278 276 276 277 274 273 274 272 266 264 265 261 253 249 243 252
306 313 333 37 41 45 28 325 56 63 55 45 81 107 113 99 101 104 112 104 107 94 109 106 126 121 106 89 93 86 75 64 62 52 46 39 29 21 14 13 25 351 347 357 349 353 351 359 347 345 340 333 342 332 327 339 329 318 316 318 317 313 308 306 299 299 295 291 287 280 275 273 269 269 269 271 271 270 272 265 255 250 248 240 233 226 217
332 31 83 115 71 55 58 70 96 94 82 48 15 88 115 118 105 109 107 102 99 113 124 132 131 108 80 82 68 62 51 50 45 26 29 26 20 9 7 7 16 350 349 346 343 350 354 349 347 343 343 336 337 334 341 335 329 325 323 319 316 311 307 305 307 304 304 298 295 289 283 277 273 269 267 261 260 260 259 258 257 254 249 241 229 226 223
94 72 78 108 94 81 75 80 93 119 130 129 130 125 103 74 71 70 100 101 98 92 113 134 100 68 68 61 62 49 47 37 46 29 14 21 9 8 355 3 6 342 338 336 340 348 346 346 345 347 339 329 323 332 328 325 325 324 319 316 313 311 310 306 302 297 294 297 292 289 284 279 276 272 267 262 260 257 255 257 255 250 248 242 239 236 225
181 87 114 102 110 113 93 84 75 59 56 65 75 93 100 104 103 98 89 92 78 67 64 60 68 68 49 56 59 39 38 34 21 11 23 10 2 356 354 357 355 338 340 338 349 340 341 341 337 332 329 319 325 323 325 327 323 319 317 312 307 305 303 303 304 303 299 295 298 297 300 293 280 268 262 258 256 251 250 255 258 258 253 250 243 239 221
31 126 126 118 113 122 126 122 113 112 106 107 98 94 97 98 97 107 111 118 104 94 77 60 71 83 74 53 34 18 16 15 358 7 12 355 355 350 349 343 356 335 338 342 342 341 329 327 331 327 320 321 321 325 324 320 318 316 312 309 306 302 300 298 295 294 293 295 294 287 279 278 275 275 275 270 258 253 249 245 246 250 255 260 275 260 231
104 120 133 135 132 121 119 107 95 113 127 128 136 134 136 134 128 124 107 70 72 75 73 75 54 51 75 58 26 355 359 4 18 14 353 356 348 342 336 356 345 334 341 337 329 325 330 331 329 323 326 324 322 323 321 319 318 312 308 308 302 298 296 293 291 290 290 292 288 287 287 287 284 279 272 264 264 266 265 260 260 258 280 24 71 1 267
182 171 158 162 167 171 151 136 131 124 121 122 131 157 133 150 131 113 113 95 74 72 71 51 35 17 26 26 16 348 357 15 12 348 347 339 342 346 346 343 326 326 335 325 330 330 329 330 327 326 324 323 321 321 319 317 313 310 308 304 300 296 293 291 291 290 290 290 289 289 287 286 288 281 269 269 276 283 278 35 28 50 88 83 60 234 102
33 82 141 141 38 72 117 132 134 131 141 122 134 134 178 107 71 58 352 299 219 186 180 63 347 3 34 18 355 348 347 359 348 343 349 351 344 339 340 327 327 340 324 324 319 328 326 328 324 322 319 318 319 318 317 314 312 307 304 300 296 294 291 287 289 291 288 287 288 288 289 291 287 288 293 277 246 242 260 236 81 71 77 95 71 53 63
96 97 119 49 359 107 126 128 139 146 145 223 242 44 62 302 355 354 287 254 4 322 329 260 217 233 15 357 350 324 325 327 341 345 3 347 327 328 324 325 323 314 314 318 320 320 322 321 319 320 318 318 318 315 313 312 310 306 300 297 293 291 289 289 288 285 285 285 282 280 282 285 287 290 287 282 280 229 221 214 171 156 136 133 107 106 87
78 85 75 55 91 86 110 133 139 104 59 318 344 23 30 17 349 248 336 309 299 310 289 304 292 0 23 300 292 288 318 333 328 344 328 309 320 317 317 313 309 314 315 315 312 316 317 318 319 320 319 315 315 316 316 314 308 301 296 292 290 289 288 287 285 284 281 280 280 281 280 278 282 284 281 282 277 272 227 86 96 4 334 189 174 148 152
109 111 125 105 121 116 220 154 144 135 179 175 187 186 174 75 8 351 294 296 313 312 286 292 301 270 258 304 318 329 320 317 336 319 305 326 328 324 310 309 308 297 300 307 309 308 315 322 319 315 312 317 323 323 321 316 309 299 295 289 286 282 280 279 279 280 277 275 275 274 273 274 278 283 286 285 285 281 273 244 183 150 163 180 188 182 173
84 107 145 210 212 120 282 347 38 100 79 100 352 355 314 118 132 204 250 270 260 283 330 338 319 315 318 300 296 297 316 320 307 296 316 321 318 312 312 299 292 301 306 302 304 313 313 300 301 311 318 323 324 327 327 323 315 304 295 290 288 285 273 267 273 275 272 272 273 271 272 271 271 275 278 277 277 278 271 271 259 231 209 179 183 198 198
153 168 277 288 317 71 85 162 199 215 248 315 173 245 203 238 298 294 283 268 241 251 240 218 243 307 304 297 302 307 312 305 304 307 312 317 317 308 291 293 293 300 303 301 297 293 291 305 316 320 320 327 331 331 329 324 317 308 301 294 288 282 286 275 264 268 264 264 261 261 263 263 266 274 282 288 291 285 278 267 258 251 248 180 154 153 172
209 159 175 305 8 23 19 356 179 258 218 197 312 304 323 277 249 259 261 251 289 286 265 279 295 281 283 290 289 293 296 292 293 310 316 312 303 295 302 308 306 298 289 284 276 287 310 318 324 326 327 333 331 331 331 325 319 313 308 303 301 301 298 294 285 276 273 262 261 256 258 266 274 277 277 281 283 282 281 273 259 265 290 118 123 122 117
186 156 246 225 213 205 220 239 255 235 240 249 258 279 294 283 259 232 233 263 254 266 306 306 287 281 286 290 291 288 291 306 317 310 306 296 290 300 301 300 298 286 265 250 264 317 322 320 325 330 330 331 331 335 332 324 319 319 310 307 304 309 319 330 323 305 286 272 260 247 243 248 263 268 274 274 274 280 279 271 262 340 355 179 164 151 147
192 181 233 300 296 268 263 275 271 275 277 259 237 263 257 250 253 253 253 285 305 285 284 286 285 287 287 308 6 20 19 10 340 305 290 292 308 307 301 293 288 290 293 314 333 319 302 307 320 327 330 330 334 338 329 323 330 325 320 321 319 313 321 335 310 300 286 280 269 239 240 244 256 259 265 271 273 275 276 277 260 208 220 214 188 143 128
213 189 213 217 229 243 256 261 277 279 279 250 231 228 239 239 241 256 271 261 274 291 287 283 294 314 349 32 23 8 2 355 304 287 286 282 280 262 277 285 280 280 282 287 283 279 280 305 325 331 333 336 337 335 332 341 338 330 330 325 327 329 342 326 316 322 311 289 261 206 235 249 259 265 266 269 264 261 268 273 258 275 222 187 168 109 131
223 233 222 230 251 257 276 280 282 277 260 232 230 239 231 229 245 253 251 256 270 273 280 311 354 44 57 39 35 358 336 305 276 277 266 260 261 271 278 286 281 279 272 265 263 267 282 309 322 332 337 338 335 331 338 347 340 334 330 332 333 334 336 335 340 328 6 343 277 238 248 251 268 271 279 280 273 268 261 247 273 224 244 64 88 101 116
247 272 336 344 327 326 321 315 294 266 271 255 213 222 227 234 246 238 231 248 281 306 335 1 76 88 74 78 39 349 314 290 250 178 229 300 297 295 291 278 273 274 268 271 272 275 301 319 328 344 339 329 325 330 345 355 348 337 335 343 338 337 340 344 340 353 350 343 314 276 266 269 274 280 283 279 268 260 262 237 206 246 263 84 80 84 84
243 251 258 325 326 302 310 303 310 297 257 220 207 207 209 224 213 237 29 315 276 260 275 110 117 112 118 120 91 250 271 278 302 299 295 302 306 300 288 296 295 285 281 274 275 298 327 319 1 354 331 315 311 326 3 2 354 350 352 345 341 348 346 345 348 357 351 341 322 293 280 276 273 274 264 272 275 255 263 248 266 165 95 84 89 99 94
218 216 227 271 310 319 311 303 299 310 243 201 189 262 221 195 213 252 242 255 311 335 59 127 132 131 134 163 233 217 250 261 263 262 262 271 280 286 295 296 298 286 282 270 280 346 318 335 30 351 325 300 298 332 21 359 352 354 345 349 346 3 358 347 350 14 22 9 356 322 294 282 282 279 284 283 280 229 276 285 102 100 99 100 111 113 115
215 250 315 311 335 335 323 299 299 187 186 195 173 209 249 215 226 239 266 277 267 293 87 151 154 156 174 183 250 275 258 254 265 285 309 322 305 296 285 288 292 288 286 286 16 343 316 12 3 326 301 300 334 353 29 6 344 334 338 17 3 0 8 6 358 359 10 21 12 297 273 283 279 286 261 269 248 345 108 131 98 84 89 108 122 125 116
187 185 168 269 336 339 308 299 250 230 251 159 134 223 215 220 234 257 266 301 340 306 186 189 170 172 175 178 214 226 250 258 265 267 280 275 271 281 284 265 267 283 311 352 336 315 344 7 330 310 300 337 350 353 16 7 340 325 6 31 27 21 12 13 16 9 4 5 354 1 213 245 273 282 245 222 93 134 134 84 87 100 111 124 127 120 114
217 209 215 221 319 347 332 249 223 234 236 244 199 196 227 228 244 280 293 278 248 184 217 211 197 193 193 206 229 227 226 232 234 245 255 269 270 268 271 291 325 351 347 350 313 308 12 0 320 304 321 352 343 9 1 351 340 329 1 37 48 50 25 20 17 26 13 18 30 32 43 29 19 43 356 10 82 55 45 73 96 106 111 108 111 109 104
244 231 242 248 253 270 270 270 240 232 225 241 253 227 209 214 225 235 249 288 269 189 263 218 193 206 223 233 231 228 218 207 203 213 235 251 260 254 249 238 239 148 46 339 311 339 341 296 295 327 353 348 348 5 347 342 326 324 27 35 46 43 42 29 25 19 20 25 33 37 51 42 33 23 27 68 89 86 101 106 107 107 119 128 124 106 100
237 245 249 250 254 277 269 263 263 256 247 234 235 251 255 239 226 237 254 257 246 198 244 232 213 215 225 223 221 224 218 215 205 206 208 224 241 247 253 201 133 103 53 359 330 307 287 287 357 349 7 352 349 355 332 329 320 348 34 40 43 43 40 37 31 25 15 18 30 40 42 48 43 43 39 32 32 73 90 88 88 95 102 113 113 105 99
260 242 234 235 232 244 250 247 254 251 241 235 231 232 225 222 243 252 269 235 222 238 246 234 39 324 319 324 284 261 231 223 229 234 229 243 278 295 293 82 77 61 29 316 268 262 281 350 20 26 13 343 333 332 327 311 301 18 39 40 51 48 48 43 43 38 34 32 30 39 51 60 69 71 57 54 43 38 46 73 91 100 111 114 115 108 106
260 257 253 248 245 246 256 251 245 259 256 240 222 232 230 224 216 219 231 221 231 224 217 232 151 178 230 240 251 245 239 228 240 246 237 222 225 273 303 342 37 75 27 322 305 304 8 19 16 20 353 332 315 312 310 299 355 37 37 47 53 56 55 52 48 48 43 43 44 45 46 57 69 74 75 68 63 65 71 76 88 96 100 105 108 106 104
273 265 256 248 242 246 261 266 253 251 249 250 229 219 223 221 222 225 225 224 214 215 248 242 221 214 215 232 248 250 225 206 218 217 233 203 180 179 195 325 12 83 61 326 318 335 31 29 29 357 331 327 320 319 310 314 25 28 41 42 51 58 59 57 54 55 56 53 52 55 56 59 64 70 77 81 75 70 73 79 85 91 98 101 99 93 89
261 258 254 249 247 245 247 233 225 255 250 253 238 220 212 219 220 218 222 215 220 210 215 242 242 234 233 216 229 243 287 306 278 278 264 253 205 147 122 167 171 7 52 331 293 321 58 36 7 340 328 322 318 315 310 8 22 30 39 46 49 53 56 59 64 63 68 73 68 59 58 58 63 68 72 71 74 79 79 79 76 72 76 85 88 94 96
267 260 253 248 253 249 239 233 199 243 259 240 235 225 220 226 226 222 215 224 218 207 219 212 217 220 232 226 221 241 249 245 227 260 296 346 25 71 57 23 51 60 332 295 319 18 65 52 2 334 328 315 316 302 337 14 8 32 26 47 65 69 76 67 59 62 66 70 76 80 78 69 65 62 63 69 73 77 76 74 75 73 73 80 88 96 100
266 257 253 249 232 243 261 232 206 229 228 239 243 236 206 219 230 228 216 213 225 216 207 208 210 205 202 219 228 209 207 206 183 186 214 123 116 104 112 121 111 58 301 342 31 36 27 13 337 323 315 313 310 306 5 18 32 36 41 26 32 42 46 71 94 104 99 95 108 112 112 100 83 79 77 73 70 69 71 73 79 79 75 78 80 74 72
275 270 259 249 245 221 263 296 246 226 223 230 244 250 233 212 215 224 227 218 209 216 217 216 210 191 191 193 208 244 282 289 234 165 164 175 136 147 158 144 104 69 343 222 176 117 101 341 319 309 305 306 294 345 40 32 31 36 41 44 37 40 43 46 36 44 70 91 108 91 88 87 89 87 83 78 78 80 85 86 89 92 93 88 85 85 88
263 263 265 262 248 210 198 230 238 232 248 232 206 225 223 224 218 218 223 223 218 217 220 215 214 195 185 185 202 209 195 212 298 38 117 143 160 150 112 114 144 202 245 256 169 127 131 219 288 298 300 294 311 52 56 59 53 52 47 45 52 45 41 39 42 59 67 65 67 75 76 75 79 81 85 87 90 86 81 77 79 84 93 92 87 83 79
266 257 245 237 237 236 233 235 232 230 236 263 323 289 223 208 223 221 214 219 223 226 231 215 203 197 196 179 188 198 185 178 188 196 150 125 124 126 138 136 116 73 329 325 79 144 141 184 237 252 289 345 54 36 53 55 57 51 68 71 70 70 64 79 81 71 72 81 93 100 99 94 84 79 79 82 85 87 84 85 82 62 56 80 100 101 105
248 239 239 236 235 240 229 236 247 244 243 225 197 281 269 235 239 251 241 222 220 216 230 229 216 196 191 188 185 184 170 177 172 172 193 162 170 124 121 129 140 176 188 236 251 264 171 161 91 336 317 56 53 44 40 54 74 76 59 67 73 86 92 71 63 67 66 74 84 88 93 97 96 98 98 98 96 95 98 103 105 105 99 98 99 104 100
242 249 253 250 257 244 217 212 217 225 218 212 218 232 236 235 251 237 231 217 240 237 222 225 222 202 198 194 189 183 173 172 161 170 198 181 176 175 164 212 186 162 200 216 183 177 150 94 104 330 301 317 106 121 138 150 90 86 90 89 78 70 67 90 110 109 116 120 108 108 109 108 111 107 104 103 103 102 100 98 98 99 100 98 97 98 105